Bryce Canyon, UT

5:54 PM MST on November 23, 2017 (GMT -0700)
Bryce Canyon

Weather History for KBCE - May, 2014

Change the Weather History Date:

Sunday, May 25, 2014

  Actual Average Record
Temperature  
Mean Temperature 48 °F -  
Max Temperature 68 °F 67 °F 78 °F (2001)
Min Temperature 30 °F 33 °F 21 °F (1990)
Degree Days  
Heating Degree Days 17    
Moisture  
Dew Point 33 °F    
Average Humidity 56    
Maximum Humidity 96    
Minimum Humidity 31    
Precipitation  
Precipitation 0.00 in - - ()
Sea Level Pressure  
Sea Level Pressure 29.92 in    
Wind  
Wind Speed 8 mph (NW)    
Max Wind Speed 18 mph    
Max Gust Speed 25 mph    
Visibility 10 miles    
Events      
Averages and records for this station are not official NWS values.
T = Trace of Precipitation, MM = Missing Value Source: NWS Daily Summary

Daily Weather History Graph

Daily Weather History Graph

Search for Another Location

Airport or City:

Trip Planner

Search our weather history database for the weather conditions in past years. The results will help you decide how hot, cold, wet, or windy it might be!

Date:

Astronomy

May. 25, 2014 Rise Set
Actual Time 6:11 AM MDT 8:39 PM MDT
Civil Twilight 5:41 AM MDT 9:09 PM MDT
Nautical Twilight 5:04 AM MDT 9:47 PM MDT
Astronomical Twilight 4:23 AM MDT 10:28 PM MDT
Moon 4:14 AM MDT (5/25) 5:47 PM MDT (5/25)
Length of Visible Light 15h 28m
Length of Day
14h 27m
Waning Crescent, 10% of the Moon is Illuminated
May 25
Waning Crescent
May 28
New
Jun 5
First Quarter
Jun 12
Full
Jun 19
Last Quarter

Hourly Weather History & Observations

Time (MDT) Temp. Windchill Dew Point Humidity Pressure Visibility Wind Dir Wind Speed Gust Speed Precip Events Conditions
12:53 AM 33.1 °F 26.1 °F 30.9 °F 92% 29.98 in 10.0 mi West 8.1 mph - N/A   Clear
1:53 AM 34.0 °F 31.0 °F 32.0 °F 92% 29.98 in 10.0 mi NW 3.5 mph - N/A   Clear
3:53 AM 30.9 °F - 30.0 °F 96% 29.97 in 10.0 mi Calm Calm - N/A   Clear
4:53 AM 32.0 °F 27.5 °F 30.0 °F 92% 29.94 in 10.0 mi WNW 4.6 mph - N/A   Clear
5:53 AM 34.0 °F 25.0 °F 30.9 °F 89% 29.95 in 10.0 mi NW 12.7 mph - N/A   Clear
6:53 AM 37.9 °F 32.1 °F 34.0 °F 86% 29.94 in 10.0 mi NNW 8.1 mph - N/A   Clear
7:53 AM 45.0 °F 40.6 °F 37.0 °F 74% 29.94 in 10.0 mi WNW 8.1 mph - N/A   Clear
9:53 AM 55.0 °F - 39.0 °F 55% 29.93 in 10.0 mi NE 6.9 mph - N/A   Partly Cloudy
10:53 AM 55.0 °F - 39.0 °F 55% 29.94 in 10.0 mi Variable 5.8 mph - N/A   Overcast
11:53 AM 59.0 °F - 36.0 °F 42% 29.94 in 10.0 mi North 10.4 mph - N/A   Mostly Cloudy
12:53 PM 64.0 °F - 36.0 °F 35% 29.92 in 10.0 mi North 11.5 mph 19.6 mph N/A   Mostly Cloudy
1:53 PM 66.0 °F - 36.0 °F 33% 29.91 in 10.0 mi NNW 15.0 mph 18.4 mph N/A   Overcast
2:53 PM 64.9 °F - 34.0 °F 32% 29.91 in 10.0 mi North 11.5 mph - N/A   Mostly Cloudy
3:53 PM 64.9 °F - 34.0 °F 32% 29.90 in 10.0 mi West 9.2 mph - N/A   Overcast
4:53 PM 66.9 °F - 36.0 °F 32% 29.87 in 10.0 mi NW 18.4 mph 25.3 mph N/A   Overcast
5:53 PM 66.9 °F - 35.1 °F 31% 29.87 in 10.0 mi West 17.3 mph - N/A   Clear
6:53 PM 64.9 °F - 33.1 °F 31% 29.86 in 10.0 mi West 18.4 mph 24.2 mph N/A   Clear
7:53 PM 62.1 °F - 30.9 °F 31% 29.87 in 10.0 mi NW 16.1 mph 24.2 mph N/A   Scattered Clouds
8:53 PM 57.9 °F - 30.0 °F 35% 29.90 in 10.0 mi NW 11.5 mph - N/A   Clear
9:53 PM 57.0 °F - 30.0 °F 36% 29.90 in 10.0 mi NNE 6.9 mph - N/A   Clear
10:53 PM 45.0 °F 42.6 °F 30.9 °F 58% 29.96 in 10.0 mi ENE 4.6 mph - N/A   Clear
11:53 PM 42.1 °F 40.2 °F 32.0 °F 67% 29.95 in 10.0 mi West 3.5 mph - N/A   Clear